When you browse on this site, cookies collect data to enhance your experience and personalize the content and advertising you see.
Visit our Privacy Policy to learn more. By continuing to use the site, you agree to this use of cookies and data.
  • In Romania
  • List of Countries
  • For 7 days
  • Water Temperature
  • Satellite Maps
  • Weather Map
  • Weather Widgets
  • user-avatar
    Login

    Hourly Weather Nakhchivan

    Today, 17 June, Monday

    Time Temperature Precipitation Wind Pressure Humidity
    00:00 +27°C° 0 mm 1 mps 686 mmHg 44%
    01:00 +27°C° 0 mm 1 mps 685 mmHg 45%
    02:00 +26°C° 0 mm 1 mps 685 mmHg 46%
    03:00 +26°C° 0 mm 1 mps 685 mmHg 47%
    04:00 +26°C° 0 mm 1 mps 685 mmHg 45%
    05:00 +27°C° 0 mm 1 mps 685 mmHg 44%
    06:00 +25°C° 0 mm 0 mps 685 mmHg 42%
    07:00 +28°C° 0 mm 1 mps 686 mmHg 39%
    08:00 +29°C° 0 mm 1 mps 686 mmHg 35%
    09:00 +31°C° 0 mm 1 mps 686 mmHg 31%
    10:00 +32°C° 0 mm 1 mps 686 mmHg 29%
    11:00 +33°C° 0 mm 1 mps 686 mmHg 27%
    12:00 +34°C° 0 mm 1 mps 686 mmHg 25%
    13:00 +34°C° 0.1 mm 4 mps 685 mmHg 27%
    14:00 +33°C° 0.1 mm 7 mps 685 mmHg 30%
    15:00 +31°C° 0.1 mm 9 mps 684 mmHg 32%
    16:00 +29°C° 0.3 mm 7 mps 684 mmHg 37%
    17:00 +28°C° 0.3 mm 5 mps 684 mmHg 42%
    18:00 +27°C° 0.3 mm 3 mps 684 mmHg 47%
    19:00 +27°C° 0 mm 2 mps 685 mmHg 48%
    20:00 +27°C° 0 mm 1 mps 685 mmHg 48%
    21:00 +25°C° 0 mm 0 mps 685 mmHg 49%
    22:00 +26°C° 0 mm 1 mps 685 mmHg 51%
    23:00 +26°C° 0 mm 1 mps 686 mmHg 53%

    Tomorrow, 18 June, Tuesday

    Time Temperature Precipitation Wind Pressure Humidity
    00:00 +25°C° 0 mm 2 mps 686 mmHg 54%
    01:00 +25°C° 0 mm 2 mps 685 mmHg 56%
    02:00 +24°C° 0 mm 1 mps 685 mmHg 58%
    03:00 +24°C° 0 mm 1 mps 685 mmHg 59%
    04:00 +24°C° 0 mm 1 mps 685 mmHg 58%
    05:00 +24°C° 0 mm 1 mps 685 mmHg 57%
    06:00 +24°C° 0 mm 1 mps 685 mmHg 55%
    07:00 +25°C° 0 mm 1 mps 685 mmHg 51%
    08:00 +27°C° 0 mm 1 mps 686 mmHg 47%
    09:00 +28°C° 0 mm 1 mps 686 mmHg 43%
    10:00 +29°C° 0 mm 1 mps 686 mmHg 39%
    11:00 +30°C° 0 mm 1 mps 686 mmHg 34%
    12:00 +32°C° 0 mm 1 mps 685 mmHg 30%
    13:00 +33°C° 0 mm 1 mps 685 mmHg 27%
    14:00 +33°C° 0 mm 1 mps 685 mmHg 24%
    15:00 +35°C° 0 mm 2 mps 685 mmHg 21%
    16:00 +35°C° 0 mm 2 mps 685 mmHg 21%
    17:00 +35°C° 0 mm 2 mps 685 mmHg 21%
    18:00 +35°C° 0 mm 2 mps 685 mmHg 21%
    19:00 +33°C° 0.3 mm 3 mps 685 mmHg 26%
    20:00 +31°C° 0.3 mm 3 mps 685 mmHg 32%
    21:00 +29°C° 0.3 mm 4 mps 685 mmHg 37%
    22:00 +28°C° 0.2 mm 3 mps 685 mmHg 40%
    23:00 +27°C° 0.2 mm 2 mps 685 mmHg 44%

    Day after tomorrow, 19 June, Wednesday

    Time Temperature Precipitation Wind Pressure Humidity
    00:00 +27°C° 0.2 mm 2 mps 685 mmHg 47%
    01:00 +26°C° 0.1 mm 2 mps 685 mmHg 50%
    02:00 +25°C° 0.1 mm 2 mps 685 mmHg 53%
    03:00 +24°C° 0.1 mm 2 mps 685 mmHg 56%
    04:00 +24°C° 0.1 mm 1 mps 685 mmHg 54%
    05:00 +24°C° 0.1 mm 1 mps 685 mmHg 53%
    06:00 +24°C° 0.1 mm 1 mps 685 mmHg 52%
    07:00 +25°C° 0 mm 1 mps 685 mmHg 47%
    08:00 +26°C° 0 mm 2 mps 685 mmHg 42%
    09:00 +27°C° 0 mm 2 mps 685 mmHg 37%
    10:00 +29°C° 0 mm 2 mps 685 mmHg 35%
    11:00 +30°C° 0 mm 2 mps 685 mmHg 32%
    12:00 +31°C° 0 mm 2 mps 685 mmHg 29%
    13:00 +32°C° 0 mm 2 mps 685 mmHg 27%
    14:00 +34°C° 0 mm 2 mps 685 mmHg 25%
    15:00 +35°C° 0 mm 2 mps 685 mmHg 23%
    16:00 +34°C° 0 mm 3 mps 685 mmHg 24%
    17:00 +34°C° 0 mm 4 mps 685 mmHg 25%
    18:00 +34°C° 0 mm 5 mps 685 mmHg 27%
    19:00 +32°C° 0 mm 4 mps 685 mmHg 31%
    20:00 +30°C° 0 mm 4 mps 685 mmHg 35%
    21:00 +28°C° 0 mm 3 mps 685 mmHg 39%
    22:00 +27°C° 0 mm 3 mps 685 mmHg 41%
    23:00 +27°C° 0 mm 2 mps 685 mmHg 42%

    20 June, Thursday

    Time Temperature Precipitation Wind Pressure Humidity
    00:00 +26°C° 0 mm 2 mps 685 mmHg 44%
    01:00 +25°C° 0 mm 2 mps 685 mmHg 45%
    02:00 +25°C° 0 mm 2 mps 685 mmHg 47%
    03:00 +24°C° 0 mm 2 mps 684 mmHg 48%
    04:00 +24°C° 0 mm 1 mps 684 mmHg 47%
    05:00 +25°C° 0 mm 1 mps 685 mmHg 46%
    06:00 +25°C° 0 mm 1 mps 685 mmHg 45%
    07:00 +26°C° 0 mm 1 mps 685 mmHg 41%
    08:00 +27°C° 0 mm 1 mps 685 mmHg 37%
    09:00 +29°C° 0 mm 1 mps 685 mmHg 33%
    10:00 +30°C° 0 mm 2 mps 685 mmHg 30%
    11:00 +31°C° 0 mm 2 mps 685 mmHg 28%
    12:00 +32°C° 0 mm 2 mps 684 mmHg 25%
    13:00 +34°C° 0 mm 3 mps 684 mmHg 24%
    14:00 +35°C° 0 mm 3 mps 684 mmHg 22%
    15:00 +36°C° 0 mm 3 mps 683 mmHg 21%
    16:00 +36°C° 0 mm 4 mps 683 mmHg 23%
    17:00 +35°C° 0 mm 5 mps 683 mmHg 24%
    18:00 +35°C° 0 mm 5 mps 683 mmHg 26%
    19:00 +33°C° 0 mm 5 mps 683 mmHg 31%
    20:00 +30°C° 0 mm 4 mps 683 mmHg 36%
    21:00 +28°C° 0 mm 3 mps 684 mmHg 42%
    22:00 +27°C° 0.1 mm 2 mps 683 mmHg 44%
    23:00 +27°C° 0.1 mm 2 mps 683 mmHg 47%

    21 June, Friday

    Time Temperature Precipitation Wind Pressure Humidity
    00:00 +26°C° 0.1 mm 1 mps 683 mmHg 49%
    01:00 +25°C° 0.2 mm 1 mps 683 mmHg 51%
    02:00 +25°C° 0.2 mm 1 mps 683 mmHg 53%
    03:00 +24°C° 0.2 mm 1 mps 683 mmHg 56%
    04:00 +24°C° 0.2 mm 1 mps 683 mmHg 56%
    05:00 +24°C° 0.2 mm 1 mps 683 mmHg 57%
    06:00 +24°C° 0.2 mm 1 mps 684 mmHg 58%
    07:00 +25°C° 0.1 mm 1 mps 684 mmHg 54%
    08:00 +26°C° 0.1 mm 1 mps 684 mmHg 50%
    09:00 +27°C° 0.1 mm 1 mps 684 mmHg 46%
    10:00 +28°C° 0 mm 1 mps 684 mmHg 41%
    11:00 +29°C° 0 mm 1 mps 684 mmHg 37%
    12:00 +31°C° 0 mm 1 mps 684 mmHg 33%
    13:00 +32°C° 0 mm 2 mps 684 mmHg 31%
    14:00 +34°C° 0 mm 2 mps 684 mmHg 29%
    15:00 +35°C° 0 mm 3 mps 684 mmHg 27%
    16:00 +34°C° 0 mm 3 mps 684 mmHg 27%
    17:00 +34°C° 0 mm 4 mps 684 mmHg 28%
    18:00 +34°C° 0 mm 4 mps 684 mmHg 29%
    19:00 +32°C° 0 mm 4 mps 685 mmHg 33%
    20:00 +30°C° 0 mm 4 mps 685 mmHg 37%
    21:00 +28°C° 0 mm 4 mps 685 mmHg 42%
    22:00 +27°C° 0 mm 3 mps 685 mmHg 44%
    23:00 +27°C° 0 mm 3 mps 685 mmHg 46%

    22 June, Saturday

    Time Temperature Precipitation Wind Pressure Humidity
    00:00 +26°C° 0 mm 2 mps 685 mmHg 48%
    01:00 +25°C° 0 mm 2 mps 685 mmHg 50%
    02:00 +25°C° 0 mm 2 mps 685 mmHg 52%
    03:00 +24°C° 0 mm 2 mps 685 mmHg 53%
    04:00 +24°C° 0 mm 1 mps 685 mmHg 53%
    05:00 +24°C° 0 mm 1 mps 686 mmHg 53%
    06:00 +25°C° 0 mm 1 mps 686 mmHg 52%
    07:00 +26°C° 0 mm 1 mps 686 mmHg 48%
    08:00 +27°C° 0 mm 2 mps 686 mmHg 44%
    09:00 +28°C° 0 mm 2 mps 686 mmHg 40%
    10:00 +29°C° 0 mm 2 mps 686 mmHg 36%
    11:00 +31°C° 0 mm 2 mps 686 mmHg 33%
    12:00 +33°C° 0 mm 3 mps 686 mmHg 30%
    13:00 +34°C° 0 mm 3 mps 686 mmHg 28%
    14:00 +35°C° 0 mm 3 mps 686 mmHg 27%
    15:00 +36°C° 0 mm 4 mps 686 mmHg 25%
    16:00 +35°C° 0 mm 4 mps 686 mmHg 26%
    17:00 +35°C° 0 mm 5 mps 686 mmHg 27%
    18:00 +34°C° 0 mm 5 mps 686 mmHg 29%
    19:00 +33°C° 0.2 mm 5 mps 686 mmHg 32%
    20:00 +32°C° 0.2 mm 4 mps 687 mmHg 35%
    21:00 +29°C° 0.2 mm 4 mps 687 mmHg 38%
    22:00 +28°C° 0.1 mm 3 mps 687 mmHg 39%
    23:00 +28°C° 0.1 mm 2 mps 687 mmHg 41%
    Show more